Regional Weather Roundup
Issued by NWS Portland, ME

Current Version | Previous Version | Text Only | Print | Product List | Glossary On
Versions: 1 2 3 4 5 6 7 8 9 10 11 12 13 14 15 16 17 18 19 20 21 22 23 24 25 26 27 28 29 30 31 32 33 34 35 36 37 38 39 40 41 42 43 44 45 46 47 48 49 50
000
ASUS41 KGYX 281810
RWRGYX
WEATHER ROUNDUP FOR MAINE AND NEW HAMPSHIRE
NATIONAL WEATHER SERVICE GRAY ME
200 PM EDT SAT MAR 28 2020

MEZ002-005-006-010-012-015-018-020-021-024-026-027-029-281900-
MAINE

CITY           SKY/WX    TMP DP  RH WIND       PRES   REMARKS
PORTLAND       CLOUDY    48  22  35 S12       30.17F
6HR MIN TEMP:  38; 6HR MAX TEMP:  51;

SANFORD        FAIR      50  20  30 VRB6      30.16F
WISCASSET      FAIR      49  25  39 SW9       30.17S
6HR MIN TEMP:  31; 6HR MAX TEMP:  53;

ROCKLAND       FAIR      45  29  53 S12       30.16S
FRYEBURG       FAIR      53   9  17 S9        30.13F
6HR MIN TEMP:  30; 6HR MAX TEMP:  54;

LEWISTONAUBURN FAIR      53  10  18 S12       30.13F
AUGUSTA        FAIR      53   9  17 NW9       30.13F
6HR MIN TEMP:  35; 6HR MAX TEMP:  53;

WATERVILLE     FAIR      53  10  18 SW6       30.11F
BANGOR         PTSUNNY   51  14  22 VRB6      30.13F
6HR MIN TEMP:  35; 6HR MAX TEMP:  51;

GREENVILLE       N/A     44   9  23 VRB6G16   30.06F
6HR MIN TEMP:  30; 6HR MAX TEMP:  44;

MILLINOCKET    FAIR      47  13  25 W7        30.11F
6HR MIN TEMP:  33; 6HR MAX TEMP:  47;

HOULTON        FAIR      44  12  27 N9        30.09F
6HR MIN TEMP:  32; 6HR MAX TEMP:  45;

PRESQUE ISLE   FAIR      44   9  23 NW7       30.11S
6HR MIN TEMP:  32; 6HR MAX TEMP:  44;

FRENCHVILLE    FAIR      40  12  32 W12       30.07S
6HR MIN TEMP:  28; 6HR MAX TEMP:  40;

CARIBOU        FAIR      44  14  29 NW6       30.08S
6HR MIN TEMP:  30; 6HR MAX TEMP:  44;

$$

NHZ002-005-008-009-011-012-014-281900-
NEW HAMPSHIRE

CITY           SKY/WX    TMP DP  RH WIND       PRES   REMARKS
PORTSMOUTH     CLOUDY    50  19  30 SE10      30.15F
ROCHESTER      FAIR      52  21  29 S9        30.14F
6HR MIN TEMP:  38; 6HR MAX TEMP:  54;

NASHUA         FAIR      53  17  24 W3        30.16F
MANCHESTER     CLOUDY    53  12  19 S5        30.14S
6HR MIN TEMP:  34; 6HR MAX TEMP:  54;

CONCORD        FAIR      53  15  22 SE6       30.14F
6HR MIN TEMP:  29; 6HR MAX TEMP:  54;

LACONIA        FAIR      51  12  21 SW8       30.14S
PLYMOUTH       FAIR      51  14  22 CALM      30.13F
BERLIN         FAIR      49  10  20 CALM      30.11F
6HR MIN TEMP:  25; 6HR MAX TEMP:  50;

WHITEFIELD     FAIR      48   8  19 W3        30.12F
6HR MIN TEMP:  25; 6HR MAX TEMP:  49;

JAFFREY        FAIR      52  19  27 SW6       30.14S
6HR MIN TEMP:  29; 6HR MAX TEMP:  52; 6HR PCP: TRACE;

KEENE          PTSUNNY   50  19  29 W3        30.15S
LEBANON        FAIR      50  18  28 W3        30.13F
6HR MIN TEMP:  28; 6HR MAX TEMP:  50;

MT WASHINGTON  CLOUDY    25  16  68 W22         N/A  WCI  10
6HR MIN TEMP:  18; 6HR MAX TEMP:  27;

$$

VTZ005-007-008-281900-
VERMONT

CITY           SKY/WX    TMP DP  RH WIND       PRES   REMARKS
ST JOHNSBURY     N/A     48   9  20 MISG      30.12F
MONTPELIER     FAIR      47  14  26 SW8       30.15F
BURLINGTON     CLOUDY    52  16  24 S9        30.10F
$$

MAZ007-012-024-CTZ003-RIZ002-NYZ038-NYZ072-281900-
SOUTHERN NEW ENGLAND AND NY

CITY           SKY/WX    TMP DP  RH WIND       PRES   REMARKS
BOSTON         CLOUDY    46  33  60 E10       30.17F
WORCESTER      PTSUNNY   50  17  27 S6        30.15S
NANTUCKET      PTSUNNY   48  38  68 SE12      30.19F
PROVIDENCE     CLOUDY    52  26  36 S13       30.17F
HARTFORD       CLOUDY    51  21  30 CALM      30.16R
ALBANY         CLOUDY    51  26  37 S7        30.12F
NEW YORK CITY  LGT RAIN  46  40  79 NE10      30.13R
$$

ANZ081-ANZ082-ANZ150-NHZ014-MEZ023>029-281900-
COASTAL MARINE OBSERVATIONS

STATION/POSITION TIME  TEMP    WIND        PRES    WAVE
                       AIR SEA DIR/SP/G            HT/PER
                 (UTC) (F)     (DEG/KT/KT) (MB)    (FT/S)
MOUNT DESERT ROC 1800          220/ 14/ 15 1021.3F
ISLE OF SHOALS   1800   42     130/ 10/ 11 1021.2F
JEFFREYS LEDGE   1708      44                N/A     2/11
GEORGES BANK BUO 1750      43              1023.6F   4/ 6
$$

.............KEY..............
   WCI - WIND CHILL
   TC  - TEMPERATURE IN CELSIUS
   VSB - VISIBILITY IN MILES
   HX  - HEAT INDEX
   FAIR- INDICATES FEW OR NO CLOUDS BELOW 12,000 FT, WITH NO
         SIGNIFICANT WEATHER AND/OR OBSTRUCTIONS TO VISIBILITY.






USA.gov is the U.S. government's official web portal to all federal, state and local government web resources and services.